Location: Taupo
(38.6830°S, 176.0830°E)
Time: 00:58:23
(UTC+13:00)

Meteor 1-25 Rocket - Pass Details

Date: 24 January 2019
Orbit: 836 x 892 km, 81.2° (Epoch: 17 October)

Event Time Altitude Azimuth Distance (km) Brightness Sun altitude
Rises 23:12:31 0° 190° (S) 3,521 8.5 -24.0°
Reaches altitude 10° 23:14:58 10° 190° (S) 2,581 7.6 -24.3°
Maximum altitude 23:20:53 88° 276° (W) 905 4.2 -24.9°
Enters shadow 23:22:04 60° 5° (N) 1,026 4.3 -25.0°
